Weather History for KCSV - January, 2014

Change the Weather History Date:

Saturday, January 4, 2014

  Actual Average Record
Temperature  
Mean Temperature 30 °F 36 °F  
Max Temperature 40 °F 44 °F 66 °F (2004)
Min Temperature 20 °F 27 °F 0 °F (1969)
Degree Days  
Heating Degree Days 35    
Month to date heating degree days 149  
Since 1 July heating degree days 1829  
Cooling Degree Days 0    
Month to date cooling degree days 0  
Year to date cooling degree days 0  
Moisture  
Dew Point 19 °F    
Average Humidity 64    
Maximum Humidity 92    
Minimum Humidity 35    
Precipitation  
Precipitation 0.00 in 0.15 in 1.23 in (1957)
Month to date precipitation 0.27 0.59  
Year to date precipitation 0.27 0.59  
Sea Level Pressure  
Sea Level Pressure 30.23 in    
Wind  
Wind Speed 9 mph (South)    
Max Wind Speed 16 mph    
Max Gust Speed 26 mph    
Visibility 10 miles    
Events      
T = Trace of Precipitation, MM = Missing Value Source: NWS Daily Summary

Daily Weather History Graph

Daily Weather History Graph

Search for Another Location

Airport or City:

Trip Planner

Search our weather history database for the weather conditions in past years. The results will help you decide how hot, cold, wet, or windy it might be!

Date:

Astronomy

Jan. 04, 2014 Rise Set
Actual Time 6:51 AM CST 4:39 PM CST
Civil Twilight 6:22 AM CST 5:08 PM CST
Nautical Twilight 5:50 AM CST 5:39 PM CST
Astronomical Twilight 5:19 AM CST 6:11 PM CST
Moon 9:03 AM CST (1/4) 8:49 PM CST (1/4)
Length of Visible Light 10h 45m
Length of Day
9h 48m
Waxing Crescent, 15% of the Moon is Illuminated
Jan 4
Waxing Crescent
Jan 7
First Quarter
Jan 15
Full
Jan 23
Last Quarter
Jan 30
New

Hourly Weather History & Observations

Time (CST) Temp. Windchill Dew Point Humidity Pressure Visibility Wind Dir Wind Speed Gust Speed Precip Events Conditions
12:53 AM 23.0 °F 15.8 °F 9.0 °F 55% 30.29 in 10.0 mi South 5.8 mph - N/A   Clear
1:53 AM 24.1 °F 15.2 °F 9.0 °F 53% 30.30 in 10.0 mi South 8.1 mph 23.0 mph N/A   Clear
2:53 AM 24.1 °F 14.4 °F 9.0 °F 53% 30.30 in 10.0 mi South 9.2 mph - N/A   Clear
3:53 AM 24.1 °F 16.0 °F 9.0 °F 53% 30.30 in 10.0 mi South 6.9 mph - N/A   Clear
4:53 AM 25.0 °F 18.1 °F 9.0 °F 51% 30.30 in 10.0 mi South 5.8 mph 17.3 mph N/A   Clear
5:53 AM 26.1 °F 17.6 °F 7.0 °F 44% 30.31 in 10.0 mi South 8.1 mph 16.1 mph N/A   Clear
6:53 AM 25.0 °F 18.1 °F 7.0 °F 46% 30.32 in 10.0 mi South 5.8 mph - N/A   Clear
7:53 AM 26.1 °F 18.4 °F 8.1 °F 47% 30.32 in 10.0 mi South 6.9 mph - N/A   Clear
8:53 AM 30.0 °F 21.7 °F 8.1 °F 40% 30.32 in 10.0 mi South 9.2 mph - N/A   Clear
9:53 AM 34.0 °F 28.0 °F 9.0 °F 35% 30.31 in 10.0 mi Variable 6.9 mph 24.2 mph N/A   Clear
10:53 AM 35.1 °F 26.9 °F 10.9 °F 37% 30.29 in 10.0 mi South 11.5 mph 19.6 mph N/A   Clear
11:53 AM 37.0 °F 31.0 °F 15.1 °F 41% 30.24 in 10.0 mi South 8.1 mph 16.1 mph N/A   Clear
12:53 PM 39.0 °F 32.3 °F 16.0 °F 39% 30.22 in 10.0 mi South 10.4 mph 19.6 mph N/A   Clear
1:53 PM 39.0 °F 32.8 °F 17.1 °F 41% 30.19 in 10.0 mi South 9.2 mph 20.7 mph N/A   Clear
2:53 PM 39.9 °F 32.1 °F 21.0 °F 47% 30.17 in 10.0 mi South 13.8 mph 21.9 mph N/A   Clear
3:53 PM 39.0 °F 33.4 °F 21.9 °F 50% 30.17 in 10.0 mi SSE 8.1 mph 18.4 mph N/A   Clear
4:53 PM 36.0 °F 30.3 °F 23.0 °F 59% 30.17 in 10.0 mi South 6.9 mph - N/A   Clear
5:53 PM 36.0 °F 29.6 °F 26.1 °F 67% 30.17 in 10.0 mi South 8.1 mph - N/A   Clear
6:53 PM 34.0 °F 26.0 °F 26.1 °F 73% 30.16 in 10.0 mi SSE 10.4 mph - N/A   Clear
7:50 PM 35.6 °F 28.0 °F 30.2 °F 81% 30.12 in 10.0 mi South 10.4 mph 20.7 mph N/A   Mostly Cloudy
7:53 PM 35.1 °F 26.4 °F 30.0 °F 82% 30.16 in 10.0 mi South 12.7 mph 20.7 mph N/A   Mostly Cloudy
8:53 PM 37.9 °F 32.7 °F 35.1 °F 89% 30.15 in 10.0 mi South 6.9 mph 16.1 mph N/A   Overcast
9:53 PM 39.0 °F 31.8 °F 36.0 °F 89% 30.13 in 10.0 mi South 11.5 mph 25.3 mph N/A   Overcast
10:53 PM 39.0 °F 33.4 °F 37.0 °F 93% 30.11 in 5.0 mi South 8.1 mph - N/A   Overcast
11:53 PM 39.9 °F 33.9 °F 37.9 °F 93% 30.11 in 8.0 mi SSW 9.2 mph 20.7 mph N/A   Overcast